TDRS 8

Last updated on Jan. 22, 2020, 4:36 a.m. UTC

1 26388U 00034A   20021.64982937 -.00000245  00000-0  00000+0 0  9998
2 26388   9.0015  48.5799 0016986 294.0517 101.2179  1.00270812 71723
UTC
Height (km)
Latitude
Longitude
Inclination
Orbital Period
UTC large
Height (km)
Speed (km/s)
/
Latitude / Longitude
Inclination (degrees)
Orbital Period (minutes)
Azimuth
Elevation
Range (km)
Doppler Factor
iOS Compass Heading
iOS Angle

Next 30 passes for location: Hong Kong

Rise time Rise Azimuth (degrees) Set time Set Azimuth (degrees) Duration Max altitude (degrees)

No matching passes for this satellites